Printer-friendly version
Follow the MPC on Twitter Follow the MPC on Facebook The MPC blog
Minor Planet Center

MPEC 2007-V47 : 2007 VK8

The following Minor Planet Electronic Circular may be linked-to from your own Web pages, but must not otherwise be redistributed electronically.

A form allowing access to any MPEC is at the bottom of this page.


Read MPEC 2007-V46 Read MPEC 2007-V48


M.P.E.C. 2007-V47                                Issued 2007 Nov. 6, 13:08 UT

     The Minor Planet Electronic Circulars contain information on unusual
         minor planets and routine data on comets.  They are published
   on behalf of Commission 20 of the International Astronomical Union by the
          Minor Planet Center, Smithsonian Astrophysical Observatory,
                          Cambridge, MA 02138, U.S.A.

             Prepared using the Tamkin Foundation Computer Network

                              MPC@CFA.HARVARD.EDU
          URL http://www.cfa.harvard.edu/iau/mpc.html  ISSN 1523-6714

                                   2007 VK8

Observations:
     K07V08K* C2007 11 05.27189 03 10 39.36 -04 07 10.2          20.3 V EV047G96
     K07V08K  C2007 11 05.27689 03 10 38.71 -04 07 29.9          20.8 V EV047G96
     K07V08K  C2007 11 05.28193 03 10 38.10 -04 07 49.6          20.8 V EV047G96
     K07V08K  C2007 11 05.36032 03 10 28.16 -04 13 00.2          21.1 V EV047G96
     K07V08K  C2007 11 05.36094 03 10 28.04 -04 13 02.6          20.8 V EV047G96
     K07V08K  C2007 11 05.36284 03 10 27.84 -04 13 10.5          20.6 V EV047G96
     K07V08K  C2007 11 05.36348 03 10 27.73 -04 13 12.6          20.8 V EV047G96
     K07V08K  C2007 11 05.36531 03 10 27.48 -04 13 20.1          20.7 V EV047G96
     K07V08K  C2007 11 05.36595 03 10 27.40 -04 13 22.4          20.3 V EV047G96
     K07V08K  C2007 11 06.40724 03 08 25.15 -05 25 25.5          20.1 V EV047G96
     K07V08K  C2007 11 06.40778 03 08 25.04 -05 25 28.1          20.9 V EV047G96
     K07V08K  C2007 11 06.40831 03 08 24.93 -05 25 30.6          20.1 V EV047G96
     K07V08K  C2007 11 06.40884 03 08 24.93 -05 25 32.6          20.3 V EV047G96
     K07V08K  C2007 11 06.41126 03 08 24.54 -05 25 42.9          20.6 V EV047G96
     K07V08K  C2007 11 06.41240 03 08 24.39 -05 25 47.9          20.8 V EV047G96
     K07V08K  C2007 11 06.41549 03 08 23.92 -05 26 01.4          20.6 V EV047G96

Observer details:
G96 Mt. Lemmon Survey.  Observer A. R. Gibbs.  Measurers E. C. Beshore,
    A. Boattini, G. J. Garradd, A. R. Gibbs, A. D. Grauer, R. E. Hill,
    R. A. Kowalski, S. M. Larson, R. H. McNaught.  1.5-m reflector + CCD.

Orbital elements:
2007 VK8                                                 Earth MOID = 0.0559 AU
Epoch 2007 Oct. 27.0 TT = JDT 2454400.5                 MPC
M 312.76178              (2000.0)            P               Q
n   0.58993422     Peri.    3.27121     -0.84619259     -0.53185686
a   1.4079924      Node   144.53447     +0.48760680     -0.79777069
e   0.5406569      Incl.    3.25658     +0.21493653     -0.28406022
P   1.67           H   23.1           G   0.15           U   9
Residuals in seconds of arc
071105 G96  0.0   0.1-    071105 G96  0.0   0.1+    071106 G96  0.6+  0.0
071105 G96  0.3-  0.0     071105 G96  0.3-  0.1-    071106 G96  0.2-  0.2+
071105 G96  0.1+  0.2+    071105 G96  0.3-  0.1+    071106 G96  0.0   0.1+
071105 G96  0.4+  0.0     071106 G96  0.6+  0.2+    071106 G96  0.7-  0.0
071105 G96  0.2-  0.1+    071106 G96  0.1+  0.1-
071105 G96  0.4+  0.3-    071106 G96  0.5-  0.3-

Ephemeris:
2007 VK8                 a,e,i = 1.41, 0.54, 3                   q = 0.6468
Date    TT    R. A. (2000) Decl.     Delta      r     Elong.  Phase     V
2007 11 06    03 09.27   -04 55.9    0.174    1.154   158.3    18.5    20.6
2007 11 07    03 07.19   -06 08.8    0.165    1.145   157.2    19.6    20.5
2007 11 08    03 04.87   -07 28.2    0.157    1.136   155.9    20.9    20.4
2007 11 09    03 02.28   -08 55.1    0.149    1.127   154.4    22.4    20.3
2007 11 10    02 59.37   -10 30.5    0.142    1.118   152.6    24.1    20.2
2007 11 11    02 56.10   -12 15.4    0.134    1.109   150.5    26.1    20.2
2007 11 12    02 52.40   -14 11.1    0.127    1.100   148.1    28.4    20.1
2007 11 13    02 48.19   -16 19.1    0.120    1.091   145.5    31.0    20.0
2007 11 14    02 43.38   -18 41.1    0.113    1.082   142.5    33.9    19.9
2007 11 15    02 37.83   -21 18.8    0.107    1.072   139.1    37.1    19.9
2007 11 16    02 31.37   -24 14.0    0.101    1.063   135.4    40.8    19.8
2007 11 17    02 23.78   -27 28.4    0.0948   1.054   131.2    44.9    19.8
2007 11 18    02 14.73   -31 03.6    0.0895   1.044   126.6    49.4    19.8
2007 11 19    02 03.82   -35 00.1    0.0847   1.035   121.5    54.5    19.8
2007 11 20    01 50.45   -39 17.1    0.0805   1.026   115.9    60.1    19.8
2007 11 21    01 33.78   -43 51.4    0.0770   1.017   109.8    66.1    19.9
2007 11 22    01 12.67   -48 36.1    0.0742   1.007   103.2    72.7    20.0
2007 11 23    00 45.55   -53 19.7    0.0723   0.998    96.2    79.7    20.2
2007 11 24    00 10.56   -57 44.1    0.0713   0.989    89.0    86.9    20.4
2007 11 25    23 26.10   -61 25.9    0.0712   0.979    81.6    94.3    20.7
2007 11 26    22 32.38   -63 59.1    0.0721   0.970    74.3   101.6    21.0

Timothy B. Spahr             (C) Copyright 2007 MPC           M.P.E.C. 2007-V47

Read MPEC 2007-V46 Read MPEC 2007-V48


MPEC number:

Enter an MPEC number in one of the following forms:

  • 1997-B01 (the full form)
  • J97B01 (the packed version of the full form)
  • B01 (the abbreviated form)

Valid HTML 4.01!